User: anonymous   Login
Location: Starry Hill Observatory
(46.8582°N, 122.3590°W)
Time: 09:33:16
(UTC-07:00)
Language:

Cosmos 1300 Rocket - Orbit

View from above orbital plane
View from above orbital plane
View from above satellite
View from above satellite

Ground track
Ground track

The orbit data is extracted from the following two-line orbital elements,

1 12786U 81082B   17263.43101054  .00000078  00000-0  64207-5 0  9999
2 12786  82.4874 237.9293 0016230 303.6414  56.3252 14.84696822948944
Epoch (UTC): 20 September 2017 10:20:39
Eccentricity: 0.0016230
inclination: 82.4874°
perigee height: 603 km
apogee height: 626 km
right ascension of ascending node: 237.9293°
argument of perigee: 303.6414°
revolutions per day: 14.84696822
mean anomaly at epoch: 56.3252°
orbit number at epoch: 94894

The dashed part of the orbit path shows where the satellite is in the earth's shadow,  

DLR